When you browse on this site, cookies collect data to enhance your experience and personalize the content and advertising you see.
Visit our Privacy Policy to learn more. By continuing to use the site, you agree to this use of cookies and data.
  • In United Kingdom
  • List of Countries
  • For 7 days
  • Water Temperature
  • Satellite Maps
  • Weather Map
  • Weather Widgets
  • user-avatar
    Login

    Hourly Weather Louangphabang

    Today, 23 April, Tuesday

    Time Temperature Precipitation Wind Pressure Humidity
    00:00 +26°C° 0.2 mm 1 mps 696 mmHg 76%
    01:00 +25°C° 0 mm 1 mps 696 mmHg 82%
    02:00 +25°C° 0.1 mm 1 mps 696 mmHg 83%
    03:00 +25°C° 0.1 mm 1 mps 696 mmHg 84%
    04:00 +24°C° 0.1 mm 1 mps 696 mmHg 85%
    05:00 +23°C° 0.1 mm 0 mps 696 mmHg 83%
    06:00 +24°C° 0.1 mm 0 mps 697 mmHg 80%
    07:00 +25°C° 0 mm 0 mps 698 mmHg 78%
    08:00 +28°C° 0.1 mm 0 mps 698 mmHg 65%
    09:00 +31°C° 0.1 mm 0 mps 699 mmHg 52%
    10:00 +36°C° 0.1 mm 1 mps 699 mmHg 39%
    11:00 +37°C° 0 mm 1 mps 699 mmHg 35%
    12:00 +40°C° 0 mm 1 mps 698 mmHg 30%
    13:00 +39°C° 0 mm 1 mps 699 mmHg 30%
    14:00 +39°C° 0 mm 1 mps 698 mmHg 30%
    15:00 +37°C° 0 mm 1 mps 697 mmHg 30%
    16:00 +37°C° 0 mm 1 mps 696 mmHg 30%
    17:00 +34°C° 0 mm 1 mps 696 mmHg 36%
    18:00 +32°C° 0 mm 1 mps 696 mmHg 42%
    19:00 +30°C° 0 mm 1 mps 696 mmHg 47%
    20:00 +29°C° 0.1 mm 1 mps 696 mmHg 52%
    21:00 +28°C° 0.1 mm 1 mps 696 mmHg 57%
    22:00 +27°C° 0.1 mm 1 mps 697 mmHg 61%
    23:00 +26°C° 0.2 mm 1 mps 697 mmHg 65%

    Tomorrow, 24 April, Wednesday

    Time Temperature Precipitation Wind Pressure Humidity
    00:00 +26°C° 0.2 mm 1 mps 697 mmHg 68%
    01:00 +25°C° 0.2 mm 1 mps 696 mmHg 72%
    02:00 +25°C° 0.1 mm 1 mps 696 mmHg 73%
    03:00 +25°C° 0.1 mm 1 mps 696 mmHg 74%
    04:00 +22°C° 0.1 mm 0 mps 696 mmHg 75%
    05:00 +23°C° 0 mm 0 mps 697 mmHg 73%
    06:00 +24°C° 0 mm 0 mps 697 mmHg 70%
    07:00 +25°C° 0 mm 0 mps 697 mmHg 68%
    08:00 +28°C° 0 mm 0 mps 698 mmHg 56%
    09:00 +33°C° 0 mm 1 mps 699 mmHg 44%
    10:00 +37°C° 0 mm 1 mps 699 mmHg 33%
    11:00 +39°C° 0 mm 1 mps 699 mmHg 29%
    12:00 +41°C° 0 mm 1 mps 698 mmHg 26%
    13:00 +42°C° 0 mm 1 mps 698 mmHg 22%
    14:00 +41°C° 0 mm 1 mps 697 mmHg 23%
    15:00 +41°C° 0 mm 1 mps 696 mmHg 23%
    16:00 +40°C° 0 mm 1 mps 695 mmHg 24%
    17:00 +37°C° 0.1 mm 1 mps 695 mmHg 30%
    18:00 +34°C° 0.1 mm 1 mps 695 mmHg 36%
    19:00 +32°C° 0.1 mm 1 mps 694 mmHg 42%
    20:00 +30°C° 0.3 mm 1 mps 695 mmHg 46%
    21:00 +29°C° 0.3 mm 1 mps 695 mmHg 50%
    22:00 +28°C° 0.3 mm 1 mps 696 mmHg 55%
    23:00 +28°C° 0.1 mm 1 mps 695 mmHg 56%

    Day after tomorrow, 25 April, Thursday

    Time Temperature Precipitation Wind Pressure Humidity
    00:00 +27°C° 0.1 mm 1 mps 695 mmHg 57%
    01:00 +27°C° 0.1 mm 1 mps 695 mmHg 58%
    02:00 +24°C° 0.1 mm 0 mps 695 mmHg 60%
    03:00 +24°C° 0.1 mm 0 mps 695 mmHg 62%
    04:00 +23°C° 0.1 mm 0 mps 694 mmHg 64%
    05:00 +24°C° 0.1 mm 0 mps 695 mmHg 62%
    06:00 +25°C° 0.1 mm 0 mps 696 mmHg 60%
    07:00 +26°C° 0.1 mm 0 mps 696 mmHg 59%
    08:00 +29°C° 0 mm 0 mps 697 mmHg 50%
    09:00 +32°C° 0 mm 0 mps 698 mmHg 41%
    10:00 +36°C° 0 mm 0 mps 698 mmHg 31%
    11:00 +37°C° 0 mm 0 mps 698 mmHg 28%
    12:00 +42°C° 0 mm 1 mps 698 mmHg 24%
    13:00 +43°C° 0 mm 1 mps 697 mmHg 21%
    14:00 +41°C° 0 mm 1 mps 696 mmHg 23%
    15:00 +40°C° 0 mm 1 mps 695 mmHg 26%
    16:00 +39°C° 0 mm 1 mps 694 mmHg 28%
    17:00 +36°C° 0 mm 1 mps 694 mmHg 33%
    18:00 +31°C° 0 mm 0 mps 694 mmHg 38%
    19:00 +29°C° 0 mm 0 mps 694 mmHg 43%
    20:00 +30°C° 0.2 mm 1 mps 695 mmHg 46%
    21:00 +29°C° 0.2 mm 1 mps 695 mmHg 50%
    22:00 +28°C° 0.2 mm 1 mps 696 mmHg 54%
    23:00 +27°C° 0.1 mm 1 mps 695 mmHg 56%

    26 April, Friday

    Time Temperature Precipitation Wind Pressure Humidity
    00:00 +27°C° 0.1 mm 1 mps 695 mmHg 58%
    01:00 +26°C° 0.1 mm 1 mps 694 mmHg 60%
    02:00 +24°C° 0 mm 0 mps 694 mmHg 61%
    03:00 +24°C° 0 mm 0 mps 694 mmHg 62%
    04:00 +23°C° 0 mm 0 mps 694 mmHg 63%
    05:00 +24°C° 0 mm 0 mps 694 mmHg 61%
    06:00 +25°C° 0 mm 0 mps 695 mmHg 59%
    07:00 +26°C° 0 mm 0 mps 696 mmHg 57%
    08:00 +31°C° 0 mm 1 mps 696 mmHg 48%
    09:00 +34°C° 0 mm 1 mps 697 mmHg 39%
    10:00 +39°C° 0 mm 1 mps 698 mmHg 30%
    11:00 +39°C° 0 mm 1 mps 697 mmHg 28%
    12:00 +40°C° 0 mm 1 mps 697 mmHg 26%
    13:00 +41°C° 0 mm 1 mps 696 mmHg 24%
    14:00 +37°C° 0.3 mm 1 mps 695 mmHg 32%
    15:00 +35°C° 0.3 mm 1 mps 694 mmHg 39%
    16:00 +33°C° 0.3 mm 1 mps 693 mmHg 47%
    17:00 +31°C° 0.2 mm 1 mps 693 mmHg 52%
    18:00 +30°C° 0.2 mm 1 mps 693 mmHg 57%
    19:00 +28°C° 0.2 mm 1 mps 694 mmHg 62%
    20:00 +28°C° 0.2 mm 1 mps 694 mmHg 65%
    21:00 +27°C° 0.2 mm 1 mps 695 mmHg 68%
    22:00 +26°C° 0.2 mm 1 mps 696 mmHg 72%
    23:00 +26°C° 0 mm 1 mps 695 mmHg 74%

    27 April, Saturday

    Time Temperature Precipitation Wind Pressure Humidity
    00:00 +26°C° 0 mm 1 mps 695 mmHg 76%
    01:00 +23°C° 0 mm 0 mps 695 mmHg 78%
    02:00 +23°C° 0 mm 0 mps 695 mmHg 78%
    03:00 +25°C° 0 mm 1 mps 695 mmHg 79%
    04:00 +24°C° 0 mm 1 mps 695 mmHg 80%
    05:00 +25°C° 0.3 mm 1 mps 696 mmHg 79%
    06:00 +25°C° 0.3 mm 1 mps 696 mmHg 77%
    07:00 +26°C° 0.3 mm 1 mps 697 mmHg 76%
    08:00 +29°C° 0.5 mm 1 mps 698 mmHg 65%
    09:00 +31°C° 0.5 mm 1 mps 698 mmHg 54%
    10:00 +34°C° 0.5 mm 1 mps 699 mmHg 42%
    11:00 +35°C° 0.6 mm 1 mps 698 mmHg 40%
    12:00 +37°C° 0.6 mm 2 mps 698 mmHg 37%
    13:00 +38°C° 0.6 mm 2 mps 697 mmHg 34%
    14:00 +38°C° 0.1 mm 2 mps 696 mmHg 36%
    15:00 +37°C° 0.1 mm 2 mps 695 mmHg 38%
    16:00 +36°C° 0.1 mm 2 mps 695 mmHg 41%
    17:00 +33°C° 0.1 mm 1 mps 695 mmHg 47%
    18:00 +31°C° 0.1 mm 1 mps 695 mmHg 53%
    19:00 +30°C° 0.1 mm 1 mps 695 mmHg 59%
    20:00 +28°C° 1.5 mm 1 mps 695 mmHg 68%
    21:00 +26°C° 1.5 mm 1 mps 696 mmHg 78%
    22:00 +22°C° 1.5 mm 0 mps 696 mmHg 87%
    23:00 +22°C° 0.1 mm 0 mps 696 mmHg 88%

    28 April, Sunday

    Time Temperature Precipitation Wind Pressure Humidity
    00:00 +24°C° 0.1 mm 1 mps 696 mmHg 89%
    01:00 +24°C° 0.1 mm 1 mps 695 mmHg 90%
    02:00 +24°C° 0 mm 1 mps 695 mmHg 90%
    03:00 +24°C° 0 mm 1 mps 695 mmHg 90%
    04:00 +23°C° 0 mm 1 mps 695 mmHg 90%
    05:00 +24°C° 0 mm 1 mps 696 mmHg 87%
    06:00 +23°C° 0 mm 0 mps 696 mmHg 84%
    07:00 +23°C° 0 mm 0 mps 697 mmHg 82%
    08:00 +29°C° 0.1 mm 1 mps 698 mmHg 68%
    09:00 +32°C° 0.1 mm 1 mps 698 mmHg 54%
    10:00 +36°C° 0.1 mm 2 mps 699 mmHg 40%
    11:00 +37°C° 0.1 mm 2 mps 698 mmHg 37%
    12:00 +37°C° 0.1 mm 2 mps 697 mmHg 35%
    13:00 +38°C° 0.1 mm 2 mps 697 mmHg 32%
    14:00 +38°C° 0 mm 2 mps 696 mmHg 33%
    15:00 +36°C° 0 mm 1 mps 696 mmHg 34%
    16:00 +36°C° 0 mm 1 mps 695 mmHg 35%
    17:00 +34°C° 0.3 mm 1 mps 695 mmHg 43%
    18:00 +31°C° 0.3 mm 1 mps 695 mmHg 50%
    19:00 +29°C° 0.3 mm 1 mps 695 mmHg 57%
    20:00 +28°C° 0.3 mm 1 mps 695 mmHg 62%
    21:00 +27°C° 0.3 mm 1 mps 695 mmHg 67%
    22:00 +26°C° 0.3 mm 1 mps 696 mmHg 72%
    23:00 +26°C° 0.1 mm 1 mps 696 mmHg 73%
    Show more